Regional Weather Roundup
Issued by NWS Raleigh/Durham, NC

Home | Current Version | Previous Version | Text Only | Print | Product List | Glossary On
Versions: 1 2 3 4 5 6 7 8 9 10 11 12 13 14 15 16 17 18 19 20 21 22 23 24 25 26 27
000
ASUS42 KRAH 241610
RWRRAH
NORTH CAROLINA WEATHER ROUNDUP
NATIONAL WEATHER SERVICE RALEIGH NC
1200 PM EDT WED MAY 24 2017

NOTE: "FAIR" INDICATES FEW OR NO CLOUDS BELOW 12,000 FEET WITH NO
SIGNIFICANT WEATHER AND/OR OBSTRUCTIONS TO VISIBILITY.

NCZ001-053-055-056-065-067-241700-
WESTERN NORTH CAROLINA

CITY           SKY/WX    TMP DP  RH WIND       PRES   REMARKS
ASHEVILLE      CLOUDY    64  58  80 SE13G18   29.59F
JEFFERSON      FOG       55  55  99 SE5       29.67S VSB 1
HICKORY        LGT RAIN  66  64  93 VRB3      29.61F
RUTHERFORDTON  CLOUDY    66  65  97 SE8       29.61F
MOUNT AIRY     CLOUDY    62  58  87 E10G16    29.67F FOG
BOONE          NOT AVBL
$$

NCZ021-022-025-041-071-084-088-241700-
CENTRAL NORTH CAROLINA

CITY           SKY/WX    TMP DP  RH WIND       PRES   REMARKS
CHARLOTTE      CLOUDY    70  64  81 S10       29.64F
GREENSBORO     CLOUDY    68  65  90 S8        29.64F
WINSTON-SALEM  CLOUDY    67  62  84 E7        29.65F
RALEIGH-DURHAM DRIZZLE   69  66  90 S6        29.69S
FORT BRAGG     CLOUDY    73  66  78 SE5       29.65F
FAYETTEVILLE   CLOUDY    76  68  76 SE8       29.66F
BURLINGTON     CLOUDY    71  66  84 SE6       29.66F
LAURINBURG     CLOUDY    76  70  82 S10       29.65F
$$

NCZ011-015-027-028-043-044-047-080-103-241700-
NORTHEASTERN NORTH CAROLINA

CITY           SKY/WX    TMP DP  RH WIND       PRES   REMARKS
ROCKY MT-WILSO CLOUDY    69  66  90 NE7       29.71S
GREENVILLE     CLOUDY    72  68  88 E5        29.74S HAZE
WASHINGTON     CLOUDY    71  67  88 NE3       29.71S
ELIZABETH CITY CLOUDY    66  63  90 N5        29.73S
MANTEO         CLOUDY    69  64  85 N9        29.73R
CAPE HATTERAS  FAIR      76  67  73 SW7       29.72F
$$

NCZ078-087-090-091-093-098-101-241700-
SOUTHEASTERN NORTH CAROLINA

CITY           SKY/WX    TMP DP  RH WIND       PRES   REMARKS
LUMBERTON      LGT RAIN  74  71  91 S7        29.66F
GOLDSBORO      CLOUDY    73  70  88 CALM      29.68F
KINSTON        CLOUDY    75  64  69 S5        29.70F
KENANSVILLE    CLOUDY    73  68  83 CALM      29.69F
NEW BERN       CLOUDY    75  68  78 CALM      29.73S
CHERRY POINT   NOT AVBL
BEAUFORT       PTSUNNY   75  70  84 S7        29.72S
JACKSONVILLE   NOT AVBL
WILMINGTON     CLOUDY    78  69  73 W8        29.68F
$$





USA.gov is the U.S. government's official web portal to all federal, state and local government web resources and services.